| time (UTC) | temp F | wind direction | speed MPH | gust MPH | rain 1hr in | rain 24hr in | rain mn in | humidity % | barometer mb |
| 20260508164036 | 63 | 15 | 7.0 | 17.0 | 0.00 | 1.54 | 0.39 | 53 | 1009.6 |
| 20260508163540 | 63 | 9 | 9.0 | 17.0 | 0.00 | 1.54 | 0.39 | 53 | 1009.7 |
| 20260508163043 | 62 | 322 | 9.0 | 22.0 | 0.00 | 1.54 | 0.39 | 55 | 1009.7 |
| 20260508162544 | 62 | 341 | 10.0 | 22.0 | 0.00 | 1.54 | 0.39 | 56 | 1009.8 |
| 20260508162028 | 62 | 321 | 12.0 | 19.0 | 0.00 | 1.54 | 0.39 | 55 | 1009.7 |
| 20260508161529 | 62 | 311 | 11.0 | 19.0 | 0.00 | 1.54 | 0.39 | 55 | 1009.7 |
| 20260508161053 | 62 | 359 | 7.0 | 17.0 | 0.00 | 1.54 | 0.39 | 59 | 1009.8 |
| 20260508160535 | 62 | 360 | 8.0 | 17.0 | 0.00 | 1.54 | 0.39 | 59 | 1009.7 |
| 20260508155602 | 61 | 307 | 8.0 | 17.0 | 0.00 | 1.54 | 0.39 | 59 | 1009.7 |
| 20260508155105 | 61 | 359 | 7.0 | 16.0 | 0.00 | 1.54 | 0.39 | 62 | 1009.9 |
| 20260508154540 | 61 | 339 | 11.0 | 21.0 | 0.00 | 1.54 | 0.39 | 62 | 1010.1 |
| 20260508154101 | 60 | 313 | 10.0 | 21.0 | 0.00 | 1.54 | 0.39 | 64 | 1010.3 |
| 20260508153600 | 61 | 10 | 10.0 | 18.0 | 0.00 | 1.54 | 0.39 | 62 | 1010.3 |
| 20260508152541 | 61 | 325 | 9.0 | 21.0 | 0.00 | 1.54 | 0.39 | 63 | 1010.4 |
| 20260508152042 | 61 | 346 | 7.0 | 15.0 | 0.00 | 1.54 | 0.39 | 65 | 1010.4 |
| 20260508151545 | 60 | 23 | 10.0 | 20.0 | 0.00 | 1.54 | 0.39 | 66 | 1010.4 |
| 20260508151045 | 60 | 359 | 10.0 | 20.0 | 0.00 | 1.54 | 0.39 | 66 | 1010.5 |
| 20260508150526 | 60 | 359 | 9.0 | 17.0 | 0.00 | 1.54 | 0.39 | 66 | 1010.5 |
| 20260508150030 | 60 | 346 | 9.0 | 17.0 | 0.00 | 1.54 | 0.39 | 66 | 1010.5 |
| 20260508145530 | 60 | 350 | 7.0 | 19.0 | 0.00 | 1.54 | 0.39 | 67 | 1010.5 |
| 20260508145031 | 59 | 331 | 10.0 | 22.0 | 0.00 | 1.54 | 0.39 | 67 | 1010.6 |
| 20260508144532 | 59 | 322 | 10.0 | 22.0 | 0.00 | 1.54 | 0.39 | 67 | 1010.9 |
| 20260508144033 | 59 | 296 | 8.0 | 17.0 | 0.00 | 1.54 | 0.39 | 68 | 1010.9 |
| 20260508143535 | 59 | 11 | 8.0 | 17.0 | 0.00 | 1.54 | 0.39 | 69 | 1011.0 |
| 20260508143036 | 59 | 1 | 10.0 | 17.0 | 0.00 | 1.54 | 0.39 | 69 | 1011.0 |
| 20260508142556 | 58 | 340 | 8.0 | 17.0 | 0.00 | 1.54 | 0.39 | 70 | 1010.9 |
| 20260508142039 | 58 | 330 | 7.0 | 16.0 | 0.00 | 1.54 | 0.39 | 69 | 1010.9 |
| 20260508141525 | 58 | 12 | 6.0 | 14.0 | 0.00 | 1.54 | 0.39 | 74 | 1010.9 |
| 20260508141030 | 58 | 329 | 6.0 | 17.0 | 0.00 | 1.54 | 0.39 | 75 | 1011.1 |
| 20260508140533 | 57 | 348 | 9.0 | 17.0 | 0.00 | 1.54 | 0.39 | 74 | 1010.9 |
| 20260508140040 | 57 | 359 | 8.0 | 16.0 | 0.00 | 1.54 | 0.39 | 75 | 1010.9 |
| 20260508135525 | 57 | 314 | 8.0 | 16.0 | 0.00 | 1.54 | 0.39 | 79 | 1010.9 |
| 20260508135029 | 57 | 7 | 8.0 | 21.0 | 0.00 | 1.54 | 0.39 | 79 | 1010.9 |
| 20260508134534 | 56 | 330 | 10.0 | 21.0 | 0.00 | 1.54 | 0.39 | 79 | 1011.0 |
| 20260508134037 | 56 | 27 | 8.0 | 17.0 | 0.00 | 1.54 | 0.39 | 80 | 1011.0 |
| 20260508133540 | 56 | 11 | 9.0 | 15.0 | 0.00 | 1.54 | 0.39 | 81 | 1011.0 |
| 20260508133043 | 56 | 1 | 9.0 | 17.0 | 0.00 | 1.54 | 0.39 | 82 | 1010.9 |
| 20260508132526 | 56 | 295 | 6.0 | 12.0 | 0.00 | 1.54 | 0.39 | 84 | 1011.0 |
| 20260508132035 | 56 | 1 | 6.0 | 16.0 | 0.00 | 1.54 | 0.39 | 85 | 1011.0 |
| 20260508131535 | 55 | 2 | 8.0 | 16.0 | 0.00 | 1.54 | 0.39 | 86 | 1010.9 |
| 20260508131058 | 54 | 337 | 9.0 | 17.0 | 0.00 | 1.54 | 0.39 | 87 | 1011.0 |
| 20260508130521 | 54 | 23 | 7.0 | 17.0 | 0.00 | 1.54 | 0.39 | 87 | 1011.1 |
| 20260508130027 | 54 | 321 | 8.0 | 12.0 | 0.00 | 1.54 | 0.39 | 86 | 1011.1 |
| 20260508125530 | 54 | 325 | 6.0 | 14.0 | 0.00 | 1.54 | 0.39 | 87 | 1011.2 |
| 20260508125053 | 54 | 351 | 5.0 | 14.0 | 0.00 | 1.54 | 0.39 | 87 | 1011.0 |
| 20260508124536 | 54 | 1 | 6.0 | 15.0 | 0.00 | 1.54 | 0.39 | 87 | 1010.8 |
| 20260508124037 | 54 | 356 | 8.0 | 16.0 | 0.00 | 1.54 | 0.39 | 86 | 1010.8 |
| 20260508123601 | 54 | 1 | 7.0 | 17.0 | 0.00 | 1.54 | 0.39 | 87 | 1010.9 |
| 20260508123042 | 54 | 355 | 9.0 | 16.0 | 0.00 | 1.54 | 0.39 | 87 | 1011.1 |
| 20260508122545 | 54 | 359 | 7.0 | 14.0 | 0.00 | 1.54 | 0.39 | 87 | 1011.0 |
| 20260508122025 | 54 | 359 | 5.0 | 11.0 | 0.00 | 1.54 | 0.39 | 88 | 1011.0 |
| 20260508121531 | 54 | 1 | 6.0 | 14.0 | 0.00 | 1.54 | 0.39 | 88 | 1011.0 |
| 20260508121037 | 54 | 25 | 6.0 | 15.0 | 0.00 | 1.54 | 0.39 | 88 | 1011.1 |
| 20260508120546 | 54 | 316 | 6.0 | 14.0 | 0.00 | 1.54 | 0.39 | 88 | 1011.0 |
| 20260508120034 | 54 | 352 | 8.0 | 14.0 | 0.00 | 1.54 | 0.39 | 87 | 1011.0 |
| 20260508115540 | 54 | 360 | 5.0 | 10.0 | 0.00 | 1.54 | 0.39 | 88 | 1010.9 |
| 20260508115046 | 54 | 9 | 5.0 | 13.0 | 0.00 | 1.54 | 0.39 | 88 | 1010.7 |
| 20260508114608 | 54 | 290 | 4.0 | 13.0 | 0.00 | 1.54 | 0.39 | 88 | 1010.6 |
| 20260508114106 | 54 | 11 | 5.0 | 16.0 | 0.00 | 1.54 | 0.39 | 88 | 1010.7 |
| 20260508113528 | 54 | 346 | 7.0 | 14.0 | 0.00 | 1.54 | 0.39 | 88 | 1010.7 |
| 20260508113033 | 54 | 308 | 6.0 | 13.0 | 0.00 | 1.54 | 0.39 | 88 | 1010.6 |
| 20260508112535 | 54 | 347 | 6.0 | 15.0 | 0.00 | 1.54 | 0.39 | 88 | 1010.6 |
| 20260508112039 | 54 | 335 | 5.0 | 17.0 | 0.00 | 1.54 | 0.39 | 88 | 1010.7 |
| 20260508111542 | 54 | 356 | 8.0 | 17.0 | 0.00 | 1.54 | 0.39 | 88 | 1010.7 |
| 20260508111026 | 54 | 328 | 7.0 | 13.0 | 0.00 | 1.54 | 0.39 | 88 | 1010.6 |
| 20260508110529 | 54 | 360 | 8.0 | 13.0 | 0.00 | 1.54 | 0.39 | 89 | 1010.6 |
| 20260508110034 | 54 | 357 | 7.0 | 14.0 | 0.00 | 1.54 | 0.39 | 89 | 1010.6 |
| 20260508105537 | 54 | 1 | 7.0 | 15.0 | 0.00 | 1.54 | 0.39 | 89 | 1010.5 |
| 20260508105027 | 54 | 15 | 8.0 | 19.0 | 0.00 | 1.54 | 0.39 | 89 | 1010.3 |
| 20260508104533 | 54 | 330 | 7.0 | 19.0 | 0.00 | 1.54 | 0.39 | 89 | 1010.1 |
| 20260508104036 | 54 | 328 | 8.0 | 15.0 | 0.00 | 1.54 | 0.39 | 90 | 1010.1 |
| 20260508103540 | 54 | 337 | 4.0 | 10.0 | 0.00 | 1.54 | 0.39 | 91 | 1010.0 |
| 20260508103103 | 54 | 359 | 6.0 | 12.0 | 0.00 | 1.54 | 0.39 | 91 | 1010.0 |
| 20260508102605 | 54 | 353 | 6.0 | 17.0 | 0.00 | 1.54 | 0.39 | 91 | 1009.9 |
| 20260508102028 | 54 | 50 | 8.0 | 15.0 | 0.00 | 1.54 | 0.39 | 90 | 1009.8 |
| 20260508101531 | 54 | 298 | 8.0 | 15.0 | 0.00 | 1.54 | 0.39 | 90 | 1009.7 |
| 20260508101034 | 55 | 1 | 7.0 | 13.0 | 0.00 | 1.54 | 0.39 | 90 | 1009.7 |
| 20260508100538 | 55 | 359 | 7.0 | 17.0 | 0.00 | 1.54 | 0.39 | 90 | 1009.6 |
| 20260508100043 | 55 | 311 | 8.0 | 17.0 | 0.00 | 1.54 | 0.39 | 90 | 1009.5 |
| 20260508095546 | 55 | 348 | 6.0 | 14.0 | 0.00 | 1.54 | 0.39 | 90 | 1009.1 |
| 20260508095047 | 55 | 316 | 7.0 | 14.0 | 0.00 | 1.54 | 0.39 | 90 | 1009.1 |
| 20260508094530 | 55 | 344 | 8.0 | 18.0 | 0.00 | 1.54 | 0.39 | 90 | 1008.9 |
| 20260508094054 | 55 | 330 | 5.0 | 17.0 | 0.00 | 1.54 | 0.39 | 90 | 1008.8 |
| 20260508093540 | 55 | 302 | 7.0 | 17.0 | 0.00 | 1.54 | 0.39 | 90 | 1008.7 |
| 20260508093105 | 55 | 1 | 6.0 | 13.0 | 0.00 | 1.54 | 0.39 | 90 | 1008.8 |
| 20260508092548 | 56 | 336 | 6.0 | 17.0 | 0.00 | 1.54 | 0.39 | 90 | 1008.7 |
| 20260508092029 | 56 | 319 | 7.0 | 17.0 | 0.00 | 1.54 | 0.39 | 90 | 1008.7 |
| 20260508091531 | 56 | 335 | 10.0 | 15.0 | 0.00 | 1.54 | 0.39 | 89 | 1008.6 |
| 20260508091035 | 56 | 360 | 7.0 | 15.0 | 0.00 | 1.54 | 0.39 | 89 | 1008.6 |
| 20260508090537 | 56 | 326 | 6.0 | 15.0 | 0.00 | 1.54 | 0.39 | 89 | 1008.5 |
| 20260508090027 | 56 | 339 | 7.0 | 14.0 | 0.00 | 1.54 | 0.39 | 90 | 1008.3 |
| 20260508085529 | 56 | 6 | 6.0 | 14.0 | 0.00 | 1.54 | 0.39 | 90 | 1008.2 |
| 20260508085032 | 56 | 2 | 8.0 | 14.0 | 0.00 | 1.54 | 0.39 | 90 | 1008.2 |
| 20260508084536 | 56 | 328 | 6.0 | 14.0 | 0.00 | 1.54 | 0.39 | 90 | 1008.2 |
| 20260508084039 | 56 | 20 | 7.0 | 14.0 | 0.00 | 1.54 | 0.39 | 90 | 1008.1 |
| 20260508083604 | 56 | 1 | 7.0 | 14.0 | 0.00 | 1.54 | 0.39 | 90 | 1007.9 |
| 20260508083031 | 56 | 325 | 6.0 | 12.0 | 0.00 | 1.54 | 0.39 | 91 | 1008.0 |
| 20260508082538 | 56 | 327 | 6.0 | 11.0 | 0.00 | 1.54 | 0.39 | 91 | 1008.1 |
| 20260508082042 | 56 | 1 | 6.0 | 13.0 | 0.08 | 1.54 | 0.39 | 91 | 1008.1 |
| 20260508081546 | 56 | 359 | 8.0 | 13.0 | 0.16 | 1.54 | 0.39 | 91 | 1007.9 |
| 20260508081028 | 56 | 319 | 6.0 | 12.0 | 0.16 | 1.54 | 0.39 | 91 | 1007.7 |
| 20260508080531 | 56 | 319 | 7.0 | 16.0 | 0.16 | 1.54 | 0.39 | 91 | 1007.6 |
| 20260508080036 | 56 | 347 | 6.0 | 13.0 | 0.20 | 1.54 | 0.39 | 92 | 1007.6 |
| 20260508075540 | 56 | 3 | 7.0 | 13.0 | 0.24 | 1.54 | 0.39 | 92 | 1007.6 |
| 20260508075043 | 56 | 326 | 7.0 | 15.0 | 0.24 | 1.54 | 0.39 | 92 | 1007.5 |
| 20260508074547 | 56 | 333 | 7.0 | 17.0 | 0.24 | 1.54 | 0.39 | 92 | 1007.7 |
| 20260508074028 | 55 | 360 | 9.0 | 17.0 | 0.24 | 1.54 | 0.39 | 93 | 1007.7 |
| 20260508073534 | 55 | 297 | 8.0 | 13.0 | 0.24 | 1.54 | 0.39 | 93 | 1007.7 |
| 20260508073042 | 55 | 321 | 10.0 | 13.0 | 0.28 | 1.54 | 0.39 | 92 | 1007.4 |
| 20260508072542 | 55 | 297 | 5.0 | 14.0 | 0.28 | 1.54 | 0.39 | 91 | 1007.1 |
| 20260508072043 | 56 | 257 | 7.0 | 15.0 | 0.24 | 1.46 | 0.37 | 89 | 1007.1 |
| 20260508071527 | 58 | 319 | 8.0 | 24.0 | 0.20 | 1.38 | 0.35 | 87 | 1007.3 |
| 20260508071031 | 62 | 295 | 8.0 | 23.0 | 0.20 | 1.38 | 0.35 | 89 | 1007.4 |
| 20260508070536 | 63 | 339 | 5.0 | 14.0 | 0.24 | 1.38 | 0.35 | 91 | 1006.7 |
| 20260508070043 | 63 | 6 | 6.0 | 16.0 | 0.20 | 1.34 | 0.34 | 91 | 1006.8 |
| 20260508065529 | 63 | 359 | 7.0 | 16.0 | 0.16 | 1.30 | 0.33 | 91 | 1006.9 |
| 20260508065033 | 63 | 359 | 2.0 | 13.0 | 0.16 | 1.30 | 0.33 | 91 | 1006.8 |
| 20260508064534 | 63 | 337 | 5.0 | 13.0 | 0.16 | 1.30 | 0.33 | 90 | 1006.8 |
| 20260508064039 | 63 | 289 | 5.0 | 11.0 | 0.16 | 1.30 | 0.33 | 90 | 1006.8 |
| 20260508063602 | 63 | 335 | 4.0 | 13.0 | 0.20 | 1.30 | 0.33 | 90 | 1006.4 |
| 20260508063027 | 63 | 318 | 7.0 | 15.0 | 0.16 | 1.26 | 0.32 | 89 | 1006.9 |
| 20260508062550 | 63 | 9 | 5.0 | 20.0 | 0.20 | 1.26 | 0.32 | 89 | 1006.1 |
| 20260508062034 | 63 | 20 | 6.0 | 20.0 | 0.16 | 1.22 | 0.31 | 90 | 1006.9 |
| 20260508061538 | 63 | 356 | 9.0 | 18.0 | 0.16 | 1.18 | 0.30 | 90 | 1007.1 |
| 20260508061043 | 63 | 348 | 7.0 | 18.0 | 0.20 | 1.18 | 0.30 | 90 | 1007.0 |
| 20260508060527 | 63 | 359 | 10.0 | 27.0 | 0.24 | 1.14 | 0.29 | 90 | 1006.7 |
| 20260508060034 | 63 | 9 | 13.0 | 27.0 | 0.55 | 1.14 | 0.29 | 91 | 1006.8 |
| 20260508055541 | 63 | 5 | 8.0 | 19.0 | 0.79 | 1.14 | 0.29 | 92 | 1007.1 |
| 20260508055046 | 63 | 356 | 9.0 | 15.0 | 0.79 | 1.14 | 0.29 | 92 | 1007.0 |
| 20260508054531 | 63 | 295 | 7.0 | 19.0 | 0.79 | 1.14 | 0.29 | 93 | 1006.8 |
| 20260508054036 | 62 | 340 | 11.0 | 19.0 | 0.79 | 1.14 | 0.29 | 93 | 1006.9 |
| 20260508053540 | 62 | 342 | 9.0 | 19.0 | 0.75 | 1.10 | 0.28 | 92 | 1006.8 |
| 20260508053024 | 62 | 359 | 7.0 | 19.0 | 0.75 | 1.10 | 0.28 | 92 | 1006.6 |
| 20260508052532 | 62 | 9 | 10.0 | 19.0 | 0.71 | 1.06 | 0.27 | 92 | 1006.9 |
| 20260508052056 | 62 | 10 | 9.0 | 18.0 | 0.71 | 1.06 | 0.27 | 92 | 1006.9 |
| 20260508051539 | 62 | 1 | 10.0 | 18.0 | 0.67 | 1.02 | 0.26 | 92 | 1006.9 |
| 20260508051045 | 62 | 21 | 9.0 | 15.0 | 0.63 | 0.98 | 0.25 | 91 | 1006.9 |
| 20260508050528 | 63 | 333 | 8.0 | 12.0 | 0.55 | 0.91 | 0.23 | 91 | 1007.3 |
| 20260508050035 | 63 | 351 | 5.0 | 11.0 | 0.24 | 0.59 | 0.15 | 90 | 1008.0 |
| 20260508045602 | 63 | 11 | 5.0 | 12.0 | 0.00 | 0.35 | 0.09 | 90 | 1007.4 |
| 20260508045043 | 63 | 328 | 7.0 | 12.0 | 0.00 | 0.35 | 0.09 | 90 | 1006.8 |
| 20260508044608 | 63 | 1 | 5.0 | 9.0 | 0.04 | 0.35 | 0.09 | 90 | 1006.4 |
| 20260508044029 | 63 | 39 | 5.0 | 13.0 | 0.04 | 0.35 | 0.09 | 89 | 1006.6 |
| 20260508043533 | 63 | 1 | 6.0 | 13.0 | 0.12 | 0.35 | 0.09 | 89 | 1006.7 |
| 20260508043038 | 63 | 360 | 6.0 | 13.0 | 0.31 | 0.35 | 0.09 | 89 | 1006.7 |
| 20260508042544 | 63 | 359 | 5.0 | 10.0 | 0.35 | 0.35 | 0.09 | 89 | 1006.6 |
| 20260508042028 | 63 | 359 | 5.0 | 9.0 | 0.35 | 0.35 | 0.09 | 89 | 1006.6 |
| 20260508041551 | 63 | 359 | 6.0 | 14.0 | 0.35 | 0.35 | 0.09 | 89 | 1006.6 |
| 20260508041052 | 63 | 360 | 6.0 | 14.0 | 0.35 | 0.35 | 0.09 | 89 | 1006.5 |
| 20260508040536 | 63 | 6 | 5.0 | 11.0 | 0.35 | 0.35 | 0.09 | 89 | 1006.6 |
| 20260508040043 | 63 | 359 | 6.0 | 16.0 | 0.35 | 0.35 | 0.09 | 89 | 1006.5 |
| 20260508035528 | 63 | 357 | 6.0 | 16.0 | 0.35 | 0.35 | 0.09 | 89 | 1006.6 |
| 20260508035031 | 63 | 46 | 10.0 | 17.0 | 0.35 | 0.35 | 0.09 | 89 | 1006.9 |
| 20260508034533 | 63 | 309 | 7.0 | 17.0 | 0.31 | 0.31 | 0.08 | 89 | 1007.0 |
| 20260508034038 | 63 | 337 | 7.0 | 15.0 | 0.31 | 0.31 | 0.08 | 89 | 1007.5 |
| 20260508033543 | 63 | 330 | 9.0 | 20.0 | 0.20 | 0.20 | 0.05 | 87 | 1007.3 |
| 20260508033046 | 64 | 329 | 10.0 | 20.0 | 0.04 | 0.04 | 0.01 | 86 | 1007.7 |
| 20260508032528 | 65 | 318 | 11.0 | 30.0 | 0.00 | 0.00 | 0.00 | 83 | 1007.8 |
| 20260508032032 | 66 | 295 | 14.0 | 31.0 | 0.00 | 0.00 | 0.00 | 80 | 1007.4 |
| 20260508031555 | 67 | 309 | 19.0 | 31.0 | 0.00 | 0.00 | 0.00 | 77 | 1007.5 |
| 20260508031038 | 68 | 322 | 19.0 | 32.0 | 0.00 | 0.00 | 0.00 | 72 | 1007.0 |
| 20260508030527 | 70 | 295 | 13.0 | 32.0 | 0.00 | 0.00 | 0.00 | 69 | 1007.1 |
| 20260508030036 | 72 | 294 | 11.0 | 21.0 | 0.00 | 0.00 | 0.00 | 65 | 1007.5 |
| 20260508025542 | 74 | 274 | 9.0 | 15.0 | 0.00 | 0.00 | 0.00 | 65 | 1006.9 |
| 20260508025027 | 74 | 359 | 9.0 | 16.0 | 0.00 | 0.00 | 0.00 | 65 | 1006.5 |
| 20260508024530 | 74 | 340 | 10.0 | 16.0 | 0.00 | 0.00 | 0.00 | 65 | 1006.6 |
| 20260508024053 | 74 | 1 | 8.0 | 15.0 | 0.00 | 0.00 | 0.00 | 65 | 1006.7 |
| 20260508023539 | 74 | 3 | 8.0 | 15.0 | 0.00 | 0.00 | 0.00 | 64 | 1006.7 |
| 20260508023043 | 74 | 343 | 9.0 | 15.0 | 0.00 | 0.00 | 0.00 | 64 | 1006.9 |
| 20260508022527 | 74 | 1 | 7.0 | 15.0 | 0.00 | 0.00 | 0.00 | 64 | 1006.9 |
| 20260508022034 | 74 | 1 | 7.0 | 15.0 | 0.00 | 0.00 | 0.00 | 65 | 1007.1 |
| 20260508021539 | 74 | 18 | 7.0 | 22.0 | 0.00 | 0.00 | 0.00 | 65 | 1006.6 |
| 20260508021103 | 74 | 1 | 9.0 | 22.0 | 0.00 | 0.00 | 0.00 | 64 | 1006.1 |
| 20260508020526 | 74 | 18 | 11.0 | 26.0 | 0.00 | 0.00 | 0.00 | 65 | 1006.2 |
| 20260508020031 | 74 | 340 | 8.0 | 18.0 | 0.00 | 0.00 | 0.00 | 64 | 1006.3 |
| 20260508015539 | 74 | 355 | 8.0 | 17.0 | 0.00 | 0.00 | 0.00 | 64 | 1006.5 |
| 20260508015042 | 74 | 20 | 9.0 | 20.0 | 0.00 | 0.00 | 0.00 | 64 | 1006.5 |
| 20260508014543 | 74 | 1 | 11.0 | 21.0 | 0.00 | 0.00 | 0.00 | 64 | 1006.7 |
| 20260508014048 | 74 | 359 | 9.0 | 20.0 | 0.00 | 0.00 | 0.00 | 64 | 1006.7 |
| 20260508013531 | 74 | 345 | 8.0 | 22.0 | 0.00 | 0.00 | 0.00 | 64 | 1006.8 |
| 20260508013035 | 74 | 1 | 8.0 | 22.0 | 0.00 | 0.00 | 0.00 | 64 | 1006.8 |
| 20260508012541 | 74 | 1 | 7.0 | 18.0 | 0.00 | 0.00 | 0.00 | 64 | 1006.8 |
| 20260508012044 | 74 | 353 | 9.0 | 17.0 | 0.00 | 0.00 | 0.00 | 64 | 1006.9 |
| 20260508011529 | 74 | 359 | 8.0 | 16.0 | 0.00 | 0.00 | 0.00 | 63 | 1007.0 |
| 20260508011031 | 74 | 1 | 8.0 | 15.0 | 0.00 | 0.00 | 0.00 | 63 | 1007.0 |
| 20260508010535 | 74 | 17 | 10.0 | 15.0 | 0.00 | 0.00 | 0.00 | 63 | 1006.9 |
| 20260508010041 | 74 | 5 | 9.0 | 17.0 | 0.00 | 0.00 | 0.00 | 63 | 1006.9 |
| 20260508005527 | 74 | 1 | 9.0 | 20.0 | 0.00 | 0.00 | 0.00 | 63 | 1006.9 |
| 20260508005052 | 74 | 1 | 10.0 | 20.0 | 0.00 | 0.00 | 0.00 | 63 | 1006.9 |
| 20260508004532 | 74 | 347 | 8.0 | 17.0 | 0.00 | 0.00 | 0.00 | 63 | 1006.9 |
| 20260508004035 | 74 | 1 | 8.0 | 15.0 | 0.00 | 0.00 | 0.00 | 63 | 1006.8 |
| 20260508003539 | 74 | 330 | 9.0 | 18.0 | 0.00 | 0.00 | 0.00 | 63 | 1006.7 |
| 20260508003043 | 74 | 20 | 10.0 | 18.0 | 0.00 | 0.00 | 0.00 | 63 | 1006.9 |
| 20260508002547 | 74 | 6 | 8.0 | 18.0 | 0.00 | 0.00 | 0.00 | 63 | 1006.9 |
| 20260508002049 | 74 | 33 | 9.0 | 18.0 | 0.00 | 0.00 | 0.00 | 63 | 1006.9 |
| 20260508001552 | 74 | 2 | 8.0 | 14.0 | 0.00 | 0.00 | 0.00 | 63 | 1006.9 |
| 20260508001034 | 74 | 23 | 7.0 | 16.0 | 0.00 | 0.00 | 0.00 | 63 | 1006.9 |
| 20260508000557 | 74 | 346 | 7.0 | 16.0 | 0.00 | 0.00 | 0.00 | 63 | 1006.8 |
| 20260508000042 | 74 | 1 | 7.0 | 12.0 | 0.00 | 0.00 | 0.00 | 63 | 1006.8 |
| 20260507235604 | 74 | 11 | 6.0 | 12.0 | 0.00 | 0.00 | 0.00 | 63 | 1006.7 |
| 20260507235028 | 74 | 360 | 5.0 | 9.0 | 0.00 | 0.00 | 0.00 | 63 | 1006.8 |
| 20260507234532 | 75 | 4 | 5.0 | 9.0 | 0.00 | 0.00 | 0.00 | 63 | 1006.7 |
| 20260507234055 | 75 | 356 | 5.0 | 11.0 | 0.00 | 0.00 | 0.00 | 63 | 1006.7 |
| 20260507233538 | 75 | 359 | 5.0 | 10.0 | 0.00 | 0.00 | 0.00 | 63 | 1006.8 |
| 20260507233040 | 75 | 13 | 6.0 | 12.0 | 0.00 | 0.00 | 0.00 | 63 | 1006.8 |
| 20260507232528 | 75 | 1 | 4.0 | 12.0 | 0.00 | 0.00 | 0.00 | 62 | 1006.7 |
| 20260507232032 | 75 | 11 | 5.0 | 10.0 | 0.00 | 0.00 | 0.00 | 62 | 1006.7 |
| 20260507231538 | 75 | 342 | 5.0 | 11.0 | 0.00 | 0.00 | 0.00 | 62 | 1006.6 |
| 20260507231043 | 75 | 40 | 5.0 | 11.0 | 0.00 | 0.00 | 0.00 | 62 | 1006.6 |
| 20260507230527 | 75 | 349 | 4.0 | 12.0 | 0.00 | 0.00 | 0.00 | 62 | 1006.6 |
| 20260507230034 | 75 | 40 | 5.0 | 12.0 | 0.00 | 0.00 | 0.00 | 62 | 1006.7 |
| 20260507225535 | 75 | 359 | 6.0 | 9.0 | 0.00 | 0.00 | 0.00 | 62 | 1006.6 |
| 20260507225038 | 75 | 1 | 5.0 | 9.0 | 0.00 | 0.00 | 0.00 | 62 | 1006.7 |
| 20260507224541 | 75 | 4 | 5.0 | 9.0 | 0.00 | 0.00 | 0.00 | 62 | 1006.8 |
| 20260507224045 | 75 | 31 | 7.0 | 11.0 | 0.00 | 0.00 | 0.00 | 62 | 1006.9 |
| 20260507223606 | 75 | 360 | 5.0 | 12.0 | 0.00 | 0.00 | 0.00 | 61 | 1006.9 |
| 20260507223029 | 75 | 1 | 7.0 | 12.0 | 0.00 | 0.00 | 0.00 | 61 | 1006.8 |
| 20260507222539 | 75 | 349 | 7.0 | 11.0 | 0.00 | 0.00 | 0.00 | 61 | 1006.7 |
| 20260507222041 | 76 | 306 | 6.0 | 9.0 | 0.00 | 0.00 | 0.00 | 61 | 1006.7 |
| 20260507221544 | 76 | 13 | 6.0 | 9.0 | 0.00 | 0.00 | 0.00 | 60 | 1006.8 |
| 20260507221030 | 76 | 345 | 6.0 | 12.0 | 0.00 | 0.00 | 0.00 | 60 | 1006.9 |
| 20260507220531 | 76 | 11 | 8.0 | 12.0 | 0.00 | 0.00 | 0.00 | 60 | 1006.8 |
| 20260507220054 | 76 | 5 | 7.0 | 12.0 | 0.00 | 0.00 | 0.00 | 60 | 1006.8 |
| 20260507215533 | 76 | 360 | 5.0 | 9.0 | 0.00 | 0.00 | 0.00 | 60 | 1007.2 |
| 20260507215039 | 76 | 8 | 6.0 | 11.0 | 0.00 | 0.00 | 0.00 | 60 | 1007.1 |
| 20260507214542 | 76 | 6 | 6.0 | 11.0 | 0.00 | 0.00 | 0.00 | 60 | 1007.0 |
| 20260507214045 | 76 | 42 | 5.0 | 9.0 | 0.00 | 0.00 | 0.00 | 60 | 1007.1 |
| 20260507213546 | 77 | 359 | 4.0 | 9.0 | 0.00 | 0.00 | 0.00 | 60 | 1007.3 |
| 20260507213027 | 77 | 351 | 4.0 | 9.0 | 0.00 | 0.00 | 0.00 | 60 | 1007.2 |
| 20260507212530 | 77 | 1 | 4.0 | 12.0 | 0.00 | 0.00 | 0.00 | 60 | 1007.2 |
| 20260507212038 | 77 | 20 | 7.0 | 12.0 | 0.00 | 0.00 | 0.00 | 59 | 1007.3 |
| 20260507211602 | 77 | 304 | 4.0 | 12.0 | 0.00 | 0.00 | 0.00 | 59 | 1007.2 |
| 20260507211043 | 77 | 13 | 7.0 | 12.0 | 0.00 | 0.00 | 0.00 | 59 | 1007.3 |
| 20260507210526 | 77 | 359 | 8.0 | 12.0 | 0.00 | 0.00 | 0.00 | 58 | 1007.4 |
| 20260507210051 | 77 | 16 | 6.0 | 11.0 | 0.00 | 0.00 | 0.00 | 59 | 1007.3 |
| 20260507205552 | 78 | 1 | 6.0 | 17.0 | 0.00 | 0.00 | 0.00 | 58 | 1007.3 |
| 20260507205035 | 78 | 360 | 9.0 | 17.0 | 0.00 | 0.00 | 0.00 | 58 | 1007.2 |
| 20260507204559 | 78 | 24 | 5.0 | 12.0 | 0.00 | 0.00 | 0.00 | 59 | 1007.1 |
| 20260507203537 | 78 | 335 | 5.0 | 14.0 | 0.00 | 0.00 | 0.00 | 58 | 1007.3 |
| 20260507203039 | 78 | 360 | 7.0 | 14.0 | 0.00 | 0.00 | 0.00 | 58 | 1007.2 |
| 20260507202523 | 79 | 356 | 8.0 | 14.0 | 0.00 | 0.00 | 0.00 | 57 | 1007.3 |
| 20260507202029 | 79 | 57 | 8.0 | 21.0 | 0.00 | 0.00 | 0.00 | 57 | 1007.3 |
| 20260507201532 | 79 | 355 | 8.0 | 21.0 | 0.00 | 0.00 | 0.00 | 57 | 1007.3 |
| 20260507201037 | 79 | 327 | 9.0 | 19.0 | 0.00 | 0.00 | 0.00 | 57 | 1007.3 |
| 20260507200524 | 79 | 20 | 7.0 | 19.0 | 0.00 | 0.00 | 0.00 | 56 | 1007.3 |
| 20260507200028 | 79 | 1 | 8.0 | 16.0 | 0.00 | 0.00 | 0.00 | 56 | 1007.4 |
| 20260507195532 | 79 | 332 | 10.0 | 16.0 | 0.00 | 0.00 | 0.00 | 56 | 1007.3 |
| 20260507195037 | 79 | 3 | 8.0 | 19.0 | 0.00 | 0.00 | 0.00 | 56 | 1007.2 |
| 20260507194558 | 79 | 1 | 13.0 | 19.0 | 0.00 | 0.00 | 0.00 | 56 | 1007.1 |
| 20260507194040 | 79 | 27 | 10.0 | 18.0 | 0.00 | 0.00 | 0.00 | 56 | 1007.2 |
| 20260507193604 | 79 | 356 | 11.0 | 22.0 | 0.00 | 0.00 | 0.00 | 55 | 1007.3 |
| 20260507193044 | 80 | 334 | 12.0 | 19.0 | 0.00 | 0.00 | 0.00 | 55 | 1007.3 |
| 20260507192546 | 80 | 360 | 8.0 | 15.0 | 0.00 | 0.00 | 0.00 | 56 | 1007.3 |
| 20260507192026 | 79 | 2 | 9.0 | 16.0 | 0.00 | 0.00 | 0.00 | 56 | 1007.3 |
| 20260507191530 | 80 | 328 | 7.0 | 16.0 | 0.00 | 0.00 | 0.00 | 56 | 1007.3 |
| 20260507191034 | 79 | 359 | 10.0 | 19.0 | 0.00 | 0.00 | 0.00 | 56 | 1007.3 |
| 20260507190535 | 79 | 18 | 9.0 | 19.0 | 0.00 | 0.00 | 0.00 | 56 | 1007.4 |
| 20260507190035 | 79 | 1 | 9.0 | 15.0 | 0.00 | 0.00 | 0.00 | 56 | 1007.2 |
| 20260507185538 | 79 | 1 | 7.0 | 16.0 | 0.00 | 0.00 | 0.00 | 57 | 1007.3 |
| 20260507185042 | 79 | 1 | 9.0 | 16.0 | 0.00 | 0.00 | 0.00 | 56 | 1007.4 |
| 20260507184601 | 79 | 3 | 8.0 | 14.0 | 0.00 | 0.00 | 0.00 | 56 | 1007.5 |
| 20260507184027 | 79 | 338 | 8.0 | 19.0 | 0.00 | 0.00 | 0.00 | 56 | 1007.4 |
| 20260507183530 | 79 | 1 | 11.0 | 19.0 | 0.00 | 0.00 | 0.00 | 56 | 1007.5 |
| 20260507183033 | 80 | 6 | 11.0 | 19.0 | 0.00 | 0.00 | 0.00 | 55 | 1007.4 |
| 20260507182539 | 80 | 359 | 9.0 | 20.0 | 0.00 | 0.00 | 0.00 | 55 | 1007.2 |
| 20260507182043 | 80 | 1 | 9.0 | 20.0 | 0.00 | 0.00 | 0.00 | 54 | 1007.1 |
| 20260507181546 | 80 | 345 | 9.0 | 24.0 | 0.00 | 0.00 | 0.00 | 54 | 1007.1 |
| 20260507181109 | 80 | 16 | 12.0 | 26.0 | 0.00 | 0.00 | 0.00 | 54 | 1007.1 |
| 20260507180528 | 80 | 354 | 15.0 | 26.0 | 0.00 | 0.00 | 0.00 | 53 | 1007.1 |
| 20260507180033 | 80 | 323 | 14.0 | 31.0 | 0.00 | 0.00 | 0.00 | 52 | 1007.2 |
| 20260507175554 | 81 | 25 | 12.0 | 29.0 | 0.00 | 0.00 | 0.00 | 52 | 1007.5 |
| 20260507175036 | 81 | 308 | 16.0 | 26.0 | 0.00 | 0.00 | 0.00 | 51 | 1007.4 |
| 20260507174538 | 81 | 336 | 16.0 | 26.0 | 0.00 | 0.00 | 0.00 | 51 | 1007.4 |
| 20260507174040 | 82 | 326 | 17.0 | 26.0 | 0.00 | 0.00 | 0.00 | 50 | 1007.5 |
| 20260507173527 | 82 | 8 | 11.0 | 26.0 | 0.00 | 0.00 | 0.00 | 50 | 1007.6 |
| 20260507173031 | 82 | 359 | 14.0 | 27.0 | 0.00 | 0.00 | 0.00 | 50 | 1007.6 |
| 20260507172534 | 82 | 338 | 14.0 | 28.0 | 0.00 | 0.00 | 0.00 | 50 | 1007.6 |
| 20260507172035 | 82 | 360 | 17.0 | 28.0 | 0.00 | 0.00 | 0.00 | 50 | 1007.6 |
| 20260507171559 | 82 | 349 | 11.0 | 26.0 | 0.00 | 0.00 | 0.00 | 51 | 1007.7 |
| 20260507171040 | 82 | 352 | 13.0 | 24.0 | 0.00 | 0.00 | 0.00 | 50 | 1007.7 |
| 20260507170537 | 82 | 300 | 13.0 | 24.0 | 0.00 | 0.00 | 0.00 | 50 | 1007.6 |
| 20260507170044 | 82 | 57 | 12.0 | 24.0 | 0.00 | 0.00 | 0.00 | 50 | 1007.7 |
| 20260507165541 | 82 | 349 | 11.0 | 26.0 | 0.00 | 0.00 | 0.00 | 51 | 1007.6 |
| 20260507165100 | 82 | 10 | 14.0 | 27.0 | 0.00 | 0.00 | 0.00 | 50 | 1007.7 |
| 20260507164542 | 82 | 1 | 15.0 | 25.0 | 0.00 | 0.00 | 0.00 | 49 | 1007.6 |